Date String (YYYY-MM-DD hh:mm:ss) UTC,Instrument flags,absolute air pressure of the measurement (hPa),sample flow rate (lpm),inlet stack bypass flow (lpm),air temperature of the measurement (°C),ambient temperature measured by the external sensor (°C),aerosol sample conditioner tube jacket temperature (°C),OPC LED temperature (°C),internal box temperature (°C),relative humidity of the measurement (%),span deviation,mass concentration of particles derived from Lorenz-Mie calculation of OPC scattering (μg/m³),mass concentration of particles derived from Lorenz-Mie calculation of OPC scattering (μg/m³),mass concentration of particles derived from Lorenz-Mie calculation of OPC scattering (μg/m³)
DateTimeUTC,F1_M11,P_M11,Q1_M11,Q2_M11,T1_M11,T2_M11,T3_M11,T4_M11,T5_M11,U1_M11,ZSPAN_M11,X0_M11,X2_M11,X1_M11
2024-04-15 14:00:00,SystemResetWarning,0819.2,4.99,000.00,025.6,024.8,000.0,034.1,027.5,010.0,0000.0,0010.37,0003.59,0002.35
2024-04-15 14:01:00,SystemResetWarning,0819.2,5.01,000.00,025.6,024.9,000.0,034.1,027.5,009.9,0000.0,0010.73,0003.60,0002.35
2024-04-15 14:02:00,SystemResetWarning,0819.2,5.01,000.00,025.6,024.9,000.0,034.1,027.5,010.0,0000.0,0011.11,0003.61,0002.35
2024-04-15 14:03:00,SystemResetWarning,0819.2,5.00,000.00,025.6,024.9,000.0,034.1,027.5,010.0,0000.0,0011.33,0003.59,0002.36
2024-04-15 14:04:00,SystemResetWarning,0819.2,4.99,000.00,025.6,024.9,000.0,034.1,027.5,009.9,0000.0,0011.25,0003.56,0002.35
2024-04-15 14:05:00,SystemResetWarning,0819.2,4.99,000.00,025.7,024.9,000.0,034.1,027.5,010.0,0000.0,0011.25,0003.56,0002.36
2024-04-15 14:06:00,SystemResetWarning,0819.2,4.99,000.00,025.7,024.9,000.0,034.1,027.5,010.0,0000.0,0011.20,0003.57,0002.37
2024-04-15 14:07:00,SystemResetWarning,0819.3,5.01,000.00,025.7,024.9,000.0,034.1,027.5,009.9,0000.0,0011.59,0003.59,0002.35
2024-04-15 14:08:00,SystemResetWarning,0819.2,5.02,000.00,025.7,025.0,000.0,034.1,027.5,010.1,0000.0,0011.92,0003.59,0002.34
2024-04-15 14:09:00,SystemResetWarning,0819.2,4.99,000.00,025.7,024.9,000.0,034.1,027.6,010.0,0000.0,0011.78,0003.55,0002.33
2024-04-15 14:10:00,SystemResetWarning,0819.2,4.99,000.00,025.7,024.9,000.0,034.1,027.6,010.3,0000.0,0011.58,0003.54,0002.33
2024-04-15 14:11:00,SystemResetWarning,0819.1,4.99,000.00,025.7,025.0,000.0,034.1,027.6,010.2,0000.0,0011.05,0003.58,0002.34
2024-04-15 14:12:00,SystemResetWarning,0819.1,5.00,000.00,025.7,025.0,000.0,034.2,027.6,010.3,0000.0,0010.87,0003.61,0002.34
2024-04-15 14:13:00,SystemResetWarning,0819.1,5.00,000.00,025.7,025.0,000.0,034.2,027.6,010.7,0000.0,0010.65,0003.61,0002.34
2024-04-15 14:14:00,SystemResetWarning,0819.2,5.00,000.00,025.7,025.0,000.0,034.2,027.6,010.9,0000.0,0010.23,0003.62,0002.34
2024-04-15 14:15:00,SystemResetWarning,0819.1,5.00,000.00,025.8,025.0,000.0,034.2,027.6,010.8,0000.0,0010.60,0003.63,0002.35
2024-04-15 14:16:00,SystemResetWarning,0819.2,5.01,000.00,025.8,025.0,000.0,034.2,027.6,010.0,0000.0,0010.89,0003.66,0002.34
2024-04-15 14:17:00,SystemResetWarning,0819.1,5.01,000.00,025.8,025.0,000.0,034.2,027.6,009.3,0000.0,0011.17,0003.60,0002.31
2024-04-15 14:18:00,SystemResetWarning,0819.1,4.99,000.00,025.8,025.0,000.0,034.2,027.6,010.0,0000.0,0010.75,0003.55,0002.29
2024-04-15 14:19:00,SystemResetWarning,0819.1,4.99,000.00,025.8,025.1,000.0,034.2,027.7,011.1,0000.0,0009.99,0003.51,0002.30
2024-04-15 14:20:00,SystemResetWarning,0819.1,5.01,000.00,025.8,025.1,000.0,034.2,027.7,011.0,0000.0,0010.39,0003.54,0002.28
2024-04-15 14:21:00,SystemResetWarning,0819.1,5.00,000.00,025.8,025.2,000.0,034.2,027.7,010.5,0000.0,0010.79,0003.51,0002.24
2024-04-15 14:22:00,SystemResetWarning,0819.1,5.00,000.00,025.8,025.2,000.0,034.2,027.7,009.9,0000.0,0011.68,0003.44,0002.19
2024-04-15 14:23:00,SystemResetWarning,0819.1,5.00,000.00,025.9,025.2,000.0,034.3,027.7,011.2,0000.0,0012.01,0003.41,0002.15
2024-04-15 14:24:00,SystemResetWarning,0819.1,5.01,000.00,025.9,025.2,000.0,034.3,027.7,011.2,0000.0,0012.50,0003.37,0002.12
2024-04-15 14:25:00,SystemResetWarning,0819.1,4.98,000.00,025.9,025.3,000.0,034.3,027.7,010.2,0000.0,0012.69,0003.39,0002.08
2024-04-15 14:26:00,SystemResetWarning,0819.1,4.99,000.00,025.9,025.3,000.0,034.3,027.8,008.6,0000.0,0012.79,0003.35,0002.04
2024-04-15 14:27:00,SystemResetWarning,0819.0,5.00,000.00,025.9,025.3,000.0,034.3,027.8,009.0,0000.0,0012.85,0003.34,0002.00
2024-04-15 14:28:00,SystemResetWarning,0819.0,5.01,000.00,025.9,025.3,000.0,034.3,027.8,012.6,0000.0,0012.72,0003.32,0001.97
2024-04-15 14:29:00,SystemResetWarning,0819.0,5.01,000.00,025.9,025.3,000.0,034.3,027.8,012.5,0000.0,0013.46,0003.34,0001.96
2024-04-15 14:30:00,SystemResetWarning,0819.0,5.01,000.00,025.9,025.4,000.0,034.3,027.8,012.4,0000.0,0014.61,0003.39,0001.95
2024-04-15 14:31:00,SystemResetWarning,0819.0,5.00,000.00,026.0,025.4,000.0,034.3,027.8,012.7,0000.0,0015.36,0003.41,0001.94
2024-04-15 14:32:00,SystemResetWarning,0818.9,5.00,000.00,026.0,025.4,000.0,034.3,027.8,011.6,0000.0,0016.13,0003.44,0001.92
2024-04-15 14:33:00,SystemResetWarning,0819.1,5.00,000.00,026.0,025.4,000.0,034.4,027.8,010.9,0000.0,0016.20,0003.48,0001.90
2024-04-15 14:34:00,SystemResetWarning,0819.1,5.00,000.00,026.0,025.4,000.0,034.4,027.9,010.7,0000.0,0015.83,0003.47,0001.91
2024-04-15 14:35:00,SystemResetWarning,0819.4,5.00,000.00,026.0,025.4,000.0,034.4,027.9,011.1,0000.0,0016.27,0003.46,0001.89
2024-04-15 14:36:00,SystemResetWarning,0819.4,5.00,000.00,026.0,025.4,000.0,034.4,027.9,011.0,0000.0,0016.57,0003.47,0001.87
2024-04-15 14:37:00,SystemResetWarning,0819.3,5.00,000.00,026.0,025.4,000.0,034.4,027.9,009.3,0000.0,0016.51,0003.49,0001.87
2024-04-15 14:38:00,SystemResetWarning,0819.5,5.01,000.00,026.0,025.4,000.0,034.4,027.9,008.8,0000.0,0016.11,0003.48,0001.88
2024-04-15 14:39:00,SystemResetWarning,0819.2,5.01,000.00,026.1,025.5,000.0,034.4,027.9,009.0,0000.0,0015.99,0003.47,0001.88
2024-04-15 14:40:00,SystemResetWarning,0818.8,5.00,000.00,026.1,025.5,000.0,034.4,027.9,008.7,0000.0,0015.32,0003.52,0001.89
2024-04-15 14:41:00,SystemResetWarning,0818.8,4.99,000.00,026.1,025.5,000.0,034.5,028.0,008.9,0000.0,0014.23,0003.48,0001.88
2024-04-15 14:42:00,SystemResetWarning,0818.8,4.99,000.00,026.1,025.5,000.0,034.5,027.9,009.8,0000.0,0013.70,0003.45,0001.87
2024-04-15 14:43:00,SystemResetWarning,0818.8,5.00,000.00,026.1,025.5,000.0,034.5,028.0,009.0,0000.0,0012.38,0003.43,0001.88
2024-04-15 14:44:00,SystemResetWarning,0818.7,5.00,000.00,026.1,025.6,000.0,034.5,028.0,009.4,0000.0,0011.54,0003.40,0001.91
2024-04-15 14:45:00,SystemResetWarning,0818.7,5.01,000.00,026.2,025.6,000.0,034.5,028.0,009.1,0000.0,0010.60,0003.42,0001.94
2024-04-15 14:46:00,SystemResetWarning,0818.7,5.00,000.00,026.2,025.6,000.0,034.5,028.0,009.3,0000.0,0009.39,0003.41,0001.95
2024-04-15 14:47:00,SystemResetWarning,0818.7,4.99,000.00,026.2,025.6,000.0,034.5,028.0,009.7,0000.0,0008.91,0003.38,0001.98
2024-04-15 14:48:00,SystemResetWarning,0818.7,4.99,000.00,026.2,025.6,000.0,034.5,028.1,010.1,0000.0,0008.37,0003.40,0001.99
2024-04-15 14:49:00,SystemResetWarning,0818.7,5.00,000.00,026.2,025.6,000.0,034.6,028.1,010.2,0000.0,0008.47,0003.43,0002.01
2024-04-15 14:50:00,SystemResetWarning,0818.7,5.00,000.00,026.2,025.7,000.0,034.6,028.1,010.1,0000.0,0008.87,0003.48,0002.04
2024-04-15 14:51:00,SystemResetWarning,0818.7,5.01,000.00,026.2,025.7,000.0,034.6,028.1,009.7,0000.0,0008.92,0003.48,0002.05
2024-04-15 14:52:00,SystemResetWarning,0818.8,5.01,000.00,026.3,025.7,000.0,034.6,028.1,009.8,0000.0,0009.22,0003.47,0002.07
2024-04-15 14:53:00,SystemResetWarning,0818.7,4.99,000.00,026.3,025.7,000.0,034.6,028.1,009.9,0000.0,0009.59,0003.49,0002.10
2024-04-15 14:54:00,SystemResetWarning,0818.7,4.98,000.00,026.3,025.7,000.0,034.6,028.1,009.5,0000.0,0009.14,0003.52,0002.11
2024-04-15 14:55:00,SystemResetWarning,0818.7,5.01,000.00,026.3,025.7,000.0,034.6,028.1,009.3,0000.0,0009.65,0003.54,0002.13
2024-04-15 14:56:00,SystemResetWarning,0818.7,5.01,000.00,026.3,025.8,000.0,034.7,028.2,008.9,0000.0,0009.83,0003.51,0002.13
2024-04-15 14:57:00,SystemResetWarning,0818.7,4.99,000.00,026.3,025.8,000.0,034.7,028.2,009.1,0000.0,0009.76,0003.50,0002.12
2024-04-15 14:58:00,SystemResetWarning,0818.7,4.99,000.00,026.3,025.8,000.0,034.7,028.2,009.5,0000.0,0010.21,0003.52,0002.13
2024-04-15 14:59:00,SystemResetWarning,0818.7,5.00,000.00,026.4,025.8,000.0,034.7,028.2,009.1,0000.0,0010.29,0003.50,0002.13
